Location: Newark
(52.3735°N, 16.9806°E)
Time: 09:50:51
(UTC+00:00)

FO-29 - Visible Passes

Search period start: 01 December 2021 00:00
Search period end: 11 December 2021 00:00
Orbit: 799 x 1322 km, 98.5° (Epoch: 30 November)

Date Brightness Start Highest point End Pass type
(mag) Time Alt. Az. Time Alt. Az. Time Alt. Az.
01 Dec 11.3 17:22:41 12° N 17:22:41 12° N 17:23:09 10° N visible
02 Dec 11.4 18:13:22 12° N 18:13:22 12° N 18:13:48 10° N visible
03 Dec 11.3 17:17:34 11° N 17:17:34 11° N 17:17:56 10° N visible
04 Dec 11.4 18:08:13 12° N 18:08:13 12° N 18:08:38 10° N visible
05 Dec 11.3 17:12:23 11° NNE 17:12:23 11° NNE 17:12:43 10° N visible
05 Dec 11.8 18:58:53 10° NNW 18:58:53 10° NNW 18:58:53 10° NNW visible
06 Dec 11.4 18:03:02 12° N 18:03:02 12° N 18:03:28 10° N visible
07 Dec 11.3 17:07:12 11° NNE 17:07:12 11° NNE 17:07:30 10° N visible
07 Dec 11.8 18:53:41 10° NNW 18:53:41 10° NNW 18:53:45 10° NNW visible
08 Dec 11.4 17:57:51 12° N 17:57:51 12° N 17:58:19 10° N visible
09 Dec 11.3 17:02:00 11° NNE 17:02:00 11° NNE 17:02:18 10° NNE visible
09 Dec 11.7 18:48:28 11° NNW 18:48:28 11° NNW 18:48:38 10° NNW visible
10 Dec 11.3 17:52:37 13° N 17:52:37 13° N 17:53:11 10° N visible
